Location: Matera
(40.6670°N, 16.6000°E)
Time: 04:58:25
(UTC+01:00)

ISS - Visible Passes

Search period start: 23 January 2019 00:00
Search period end: 02 February 2019 00:00
Orbit: 404 x 411 km, 51.6° (Epoch: 23 January)

Date Brightness Start Highest point End Pass type
(mag) Time Alt. Az. Time Alt. Az. Time Alt. Az.
23 Jan -3.8 18:37:25 10° WSW 18:40:42 74° NW 18:41:04 64° NNE visible
24 Jan -3.6 17:46:08 10° SW 17:49:22 58° SE 17:52:02 14° ENE visible
24 Jan -1.1 19:23:25 10° WNW 19:24:46 18° WNW 19:24:46 18° WNW visible
25 Jan -2.5 18:31:34 10° W 18:34:36 33° NNW 18:35:40 26° N visible
26 Jan -3.3 17:39:54 10° WSW 17:43:09 56° NNW 17:46:25 10° NE visible
26 Jan -1.0 19:18:07 10° NW 19:19:13 14° NW 19:19:13 14° NW visible
27 Jan -1.7 18:26:04 10° WNW 18:28:37 20° NNW 18:30:00 16° NNE visible
28 Jan -2.2 17:34:08 10° W 17:37:01 28° NNW 17:39:56 10° NE visible
28 Jan -0.9 19:12:48 10° NW 19:13:26 12° NNW 19:13:26 12° NNW visible
29 Jan -1.4 18:20:45 10° NW 18:22:41 15° NNW 18:24:08 12° NNE visible
30 Jan -1.0 19:07:01 10° NNW 19:07:31 11° NNW 19:07:31 11° NNW visible
31 Jan -1.3 18:15:17 10° NNW 18:16:47 12° N 18:18:11 10° NNE visible
01 Feb -1.2 19:00:40 10° NNW 19:01:34 13° N 19:01:34 13° N visible
